Location: ??????
(55.4348°N, 39.2112°E)
Time: 05:44:45
(UTC+00:00)

NOSS 3-1 (A) - Pass Details

Date: 14 April 2024
Orbit: 660 x 1550 km, 63.4° (Epoch: 15 May)

Event Time Altitude Azimuth Distance (km) Brightness Sun altitude
Rises 01:26:44 0° 308° (NW) 3,666 6.3 -7.8°
Reaches altitude 10° 01:29:05 10° 308° (NW) 2,831 5.7 -7.5°
Maximum altitude 01:35:56 89° 231° (SW) 1,212 4.0 -6.7°
Drops below altitude 10° 01:44:27 10° 132° (SE) 3,473 6.7 -5.6°
Sets 01:47:36 0° 132° (SE) 4,541 7.3 -5.2°
